QPF
0.00 0.00 0.00 0.01 0.01 0.01 0.01 0.01 0.01 0.01 0.00 0.01 0.01 0.02 0.03 0.01 0.01 0.01 0.01 0.01 0.02 0.02 0.01 0.01 0.01 0.01 0.01 0.01 0.01 0.01 0.01 0.01 0.00 0.00 0.01 0.01 0.01 0.01 0.01 0.01 0.01 0.01 0.02
0.00 0.00 0.01 0.01 0.01 0.01 0.01 0.02 0.02 0.01 0.01 0.01 0.01 0.02 0.03 0.01 0.01 0.01 0.01 0.01 0.02 0.02 0.02 0.01 0.01 0.01 0.01 0.01 0.01 0.01 0.01 0.01 0.01 0.00 0.00 0.01 0.01 0.01 0.02 0.02 0.01 0.01 0.02
0.00 0.01 0.01 0.01 0.01 0.01 0.01 0.01 0.01 0.01 0.01 0.01 0.02 0.02 0.02 0.01 0.01 0.01 0.01 0.01 0.01 0.02 0.02 0.01 0.01 0.01 0.01 0.01 0.01 0.01 0.00 0.01 0.01 0.00 0.00 0.00 0.01 0.01 0.02 0.02 0.01 0.01 0.01
0.01 0.01 0.01 0.01 0.01 0.01 0.01 0.01 0.01 0.01 0.02 0.02 0.02 0.02 0.01 0.01 0.01 0.01 0.01 0.01 0.02 0.02 0.02 0.01 0.00 0.01 0.01 0.01 0.00 0.00 0.00 0.00 0.00 0.00 0.00 0.00 0.00 0.01 0.01 0.01 0.01 0.01 0.01
0.01 0.01 0.01 0.02 0.01 0.01 0.01 0.01 0.01 0.01 0.02 0.02 0.02 0.02 0.01 0.01 0.01 0.01 0.01 0.02 0.02 0.02 0.02 0.03 0.01 0.01 0.01 0.01 0.01 0.00 0.00 0.00 0.00 0.00 0.00 0.00 0.01 0.01 0.01 0.01 0.01 0.01 0.01
0.01 0.00 0.01 0.02 0.02 0.01 0.01 0.02 0.02 0.02 0.02 0.03 0.04 0.02 0.01 0.01 0.01 0.01 0.01 0.02 0.02 0.02 0.03 0.04 0.03 0.01 0.01 0.01 0.01 0.00 0.00 0.00 0.00 0.00 0.01 0.01 0.01 0.02 0.01 0.01 0.01 0.01 0.01
0.01 0.01 0.01 0.02 0.02 0.01 0.01 0.01 0.02 0.03 0.03 0.03 0.04 0.03 0.02 0.01 0.01 0.01 0.01 0.01 0.01 0.02 0.02 0.03 0.02 0.02 0.02 0.01 0.01 0.01 0.00 0.00 0.00 0.00 0.00 0.00 0.01 0.01 0.01 0.01 0.01 0.01 0.01
0.00 0.00 0.01 0.02 0.01 0.01 0.00 0.00 0.01 0.02 0.03 0.04 0.04 0.04 0.03 0.02 0.02 0.01 0.01 0.01 0.01 0.01 0.02 0.02 0.02 0.03 0.03 0.02 0.02 0.01 0.01 0.00 0.00 0.01 0.00 0.01 0.01 0.01 0.01 0.01 0.01 0.01 0.00
0.01 0.00 0.00 0.01 0.00 0.00 0.00 0.00 0.01 0.02 0.02 0.03 0.05 0.04 0.03 0.02 0.02 0.02 0.01 0.01 0.01 0.01 0.01 0.01 0.02 0.02 0.03 0.03 0.02 0.01 0.01 0.00 0.00 0.00 0.00 0.01 0.01 0.01 0.01 0.01 0.01 0.01 0.00
0.01 0.00 0.00 0.00 0.00 0.00 0.00 0.00 0.00 0.01 0.02 0.02 0.03 0.03 0.03 0.02 0.02 0.02 0.01 0.01 0.01 0.01 0.01 0.01 0.02 0.02 0.01 0.01 0.01 0.01 0.01 0.00 0.00 0.00 0.00 0.01 0.01 0.01 0.01 0.01 0.01 0.01 0.00
0.02 0.00 0.00 0.00 0.01 0.00 0.00 0.00 0.00 0.01 0.02 0.02 0.02 0.02 0.02 0.02 0.02 0.02 0.01 0.01 0.01 0.01 0.01 0.01 0.02 0.02 0.01 0.01 0.01 0.01 0.01 0.00 0.00 0.00 0.00 0.01 0.01 0.01 0.01 0.01 0.01 0.01 0.00
0.03 0.02 0.01 0.00 0.00 0.01 0.01 0.01 0.01 0.01 0.01 0.02 0.02 0.02 0.02 0.02 0.02 0.02 0.02 0.02 0.01 0.01 0.02 0.02 0.03 0.03 0.02 0.01 0.01 0.01 0.01 0.00 0.00 0.00 0.00 0.01 0.01 0.01 0.01 0.02 0.01 0.01 0.01
0.04 0.03 0.02 0.01 0.00 0.00 0.00 0.01 0.01 0.01 0.01 0.01 0.02 0.02 0.02 0.03 0.03 0.02 0.02 0.03 0.03 0.01 0.02 0.03 0.03 0.03 0.02 0.01 0.01 0.01 0.01 0.00 0.00 0.00 0.00 0.00 0.01 0.01 0.01 0.01 0.01 0.01 0.01
0.02 0.02 0.01 0.01 0.01 0.01 0.01 0.01 0.01 0.01 0.01 0.02 0.03 0.03 0.03 0.02 0.03 0.03 0.03 0.03 0.03 0.02 0.02 0.03 0.03 0.03 0.02 0.01 0.01 0.01 0.01 0.00 0.00 0.00 0.00 0.00 0.01 0.01 0.01 0.02 0.01 0.01 0.01
0.02 0.02 0.01 0.01 0.01 0.00 0.01 0.01 0.01 0.01 0.01 0.01 0.01 0.02 0.03 0.04 0.04 0.03 0.03 0.04 0.04 0.03 0.02 0.02 0.03 0.04 0.04 0.02 0.02 0.01 0.01 0.01 0.00 0.00 0.00 0.00 0.00 0.01 0.01 0.02 0.02 0.02 0.01
0.05 0.03 0.02 0.01 0.01 0.00 0.00 0.01 0.01 0.01 0.01 0.01 0.02 0.02 0.03 0.04 0.04 0.04 0.04 0.04 0.04 0.04 0.04 0.03 0.02 0.02 0.03 0.03 0.03 0.03 0.02 0.02 0.01 0.01 0.01 0.00 0.00 0.00 0.00 0.01 0.02 0.02 0.02
0.08 0.07 0.04 0.02 0.01 0.01 0.01 0.00 0.01 0.01 0.02 0.03 0.03 0.02 0.03 0.04 0.03 0.04 0.05 0.05 0.04 0.05 0.05 0.04 0.03 0.02 0.01 0.02 0.02 0.03 0.03 0.02 0.02 0.01 0.01 0.01 0.01 0.00 0.00 0.00 0.01 0.02 0.03
0.06 0.08 0.08 0.04 0.03 0.03 0.02 0.01 0.02 0.02 0.02 0.03 0.03 0.03 0.03 0.04 0.04 0.06 0.06 0.06 0.05 0.05 0.06 0.07 0.06 0.04 0.02 0.02 0.02 0.02 0.03 0.03 0.03 0.03 0.02 0.02 0.01 0.01 0.00 0.00 0.00 0.01 0.03
0.03 0.06 0.10 0.10 0.06 0.05 0.05 0.03 0.02 0.02 0.02 0.02 0.02 0.01 0.01 0.02 0.04 0.05 0.05 0.05 0.05 0.04 0.05 0.08 0.09 0.08 0.06 0.04 0.03 0.02 0.03 0.04 0.04 0.04 0.03 0.02 0.02 0.01 0.01 0.00 0.00 0.00 0.01
0.01 0.02 0.05 0.09 0.10 0.10 0.08 0.07 0.06 0.04 0.04 0.04 0.02 0.01 0.01 0.01 0.02 0.04 0.05 0.05 0.04 0.04 0.04 0.05 0.08 0.09 0.09 0.08 0.07 0.04 0.04 0.04 0.04 0.04 0.04 0.03 0.02 0.02 0.01 0.01 0.01 0.00 0.01
0.00 0.01 0.02 0.04 0.06 0.08 0.09 0.07 0.08 0.07 0.05 0.05 0.04 0.03 0.02 0.02 0.02 0.04 0.05 0.05 0.05 0.05 0.04 0.04 0.05 0.08 0.08 0.08 0.09 0.08 0.06 0.05 0.05 0.04 0.03 0.03 0.03 0.02 0.02 0.02 0.02 0.01 0.00
0.00 0.01 0.01 0.01 0.03 0.04 0.06 0.06 0.06 0.05 0.05 0.05 0.06 0.06 0.04 0.03 0.03 0.05 0.06 0.06 0.06 0.06 0.06 0.04 0.04 0.06 0.08 0.08 0.09 0.09 0.07 0.05 0.04 0.03 0.03 0.02 0.02 0.02 0.01 0.01 0.02 0.01 0.00
0.00 0.00 0.01 0.01 0.01 0.01 0.03 0.05 0.07 0.08 0.07 0.05 0.04 0.05 0.05 0.04 0.03 0.05 0.06 0.07 0.07 0.06 0.06 0.07 0.06 0.06 0.06 0.07 0.08 0.10 0.09 0.06 0.04 0.04 0.03 0.03 0.02 0.01 0.01 0.01 0.01 0.01 0.01
0.00 0.00 0.00 0.01 0.01 0.01 0.01 0.02 0.04 0.09 0.11 0.07 0.03 0.03 0.04 0.06 0.06 0.06 0.05 0.05 0.07 0.06 0.06 0.07 0.07 0.07 0.06 0.06 0.06 0.08 0.09 0.08 0.06 0.05 0.04 0.04 0.03 0.01 0.01 0.01 0.01 0.01 0.02
0.00 0.00 0.00 0.00 0.01 0.01 0.01 0.01 0.02 0.05 0.08 0.09 0.06 0.02 0.02 0.04 0.05 0.06 0.05 0.05 0.06 0.06 0.06 0.06 0.06 0.05 0.04 0.04 0.05 0.06 0.07 0.08 0.07 0.06 0.04 0.05 0.05 0.03 0.02 0.01 0.01 0.01 0.01
0.00 0.00 0.00 0.01 0.01 0.01 0.01 0.01 0.01 0.02 0.05 0.08 0.10 0.07 0.03 0.03 0.03 0.04 0.05 0.04 0.05 0.06 0.04 0.04 0.03 0.03 0.02 0.02 0.02 0.04 0.05 0.06 0.06 0.06 0.05 0.04 0.05 0.04 0.03 0.02 0.02 0.01 0.01
MSLP
1012.30 1011.60 1010.90 1010.29 1009.84 1009.57 1009.47 1009.48 1009.57 1009.68 1009.77 1009.84 1009.91 1010.01 1010.15 1010.35 1010.62 1010.93 1011.26 1011.58 1011.87 1012.14 1012.39 1012.63 1012.88 1013.15 1013.43 1013.71 1013.97 1014.18 1014.35 1014.48 1014.59 1014.69 1014.82 1014.98 1015.18 1015.41 1015.67 1015.91 1016.14 1016.33 1016.48
1012.26 1011.59 1010.91 1010.34 1009.92 1009.68 1009.60 1009.63 1009.72 1009.82 1009.91 1009.99 1010.07 1010.18 1010.34 1010.56 1010.83 1011.14 1011.46 1011.77 1012.05 1012.30 1012.54 1012.76 1013.00 1013.26 1013.52 1013.78 1014.02 1014.22 1014.39 1014.54 1014.66 1014.80 1014.95 1015.14 1015.37 1015.62 1015.87 1016.12 1016.34 1016.54 1016.70
1012.13 1011.49 1010.87 1010.36 1010.00 1009.81 1009.76 1009.81 1009.92 1010.02 1010.11 1010.19 1010.26 1010.37 1010.52 1010.72 1010.98 1011.26 1011.56 1011.84 1012.11 1012.35 1012.57 1012.80 1013.04 1013.29 1013.55 1013.80 1014.04 1014.25 1014.44 1014.60 1014.77 1014.94 1015.14 1015.37 1015.62 1015.88 1016.14 1016.38 1016.60 1016.79 1016.96
1011.99 1011.40 1010.85 1010.41 1010.12 1009.98 1009.98 1010.06 1010.16 1010.26 1010.33 1010.39 1010.44 1010.51 1010.63 1010.80 1011.01 1011.26 1011.52 1011.78 1012.03 1012.27 1012.51 1012.75 1013.01 1013.28 1013.55 1013.82 1014.07 1014.30 1014.52 1014.72 1014.93 1015.15 1015.39 1015.65 1015.93 1016.20 1016.46 1016.70 1016.91 1017.09 1017.26
1011.92 1011.40 1010.92 1010.56 1010.34 1010.25 1010.27 1010.35 1010.44 1010.51 1010.54 1010.55 1010.56 1010.60 1010.67 1010.79 1010.96 1011.16 1011.38 1011.62 1011.86 1012.11 1012.37 1012.65 1012.95 1013.26 1013.57 1013.87 1014.15 1014.40 1014.65 1014.89 1015.13 1015.40 1015.68 1015.97 1016.26 1016.54 1016.80 1017.02 1017.22 1017.40 1017.57
1011.97 1011.52 1011.13 1010.85 1010.69 1010.63 1010.65 1010.69 1010.73 1010.74 1010.72 1010.67 1010.63 1010.62 1010.64 1010.72 1010.84 1011.00 1011.19 1011.41 1011.65 1011.92 1012.22 1012.54 1012.89 1013.25 1013.61 1013.94 1014.25 1014.54 1014.81 1015.08 1015.36 1015.65 1015.95 1016.26 1016.57 1016.85 1017.10 1017.32 1017.52 1017.69 1017.86
1012.16 1011.81 1011.51 1011.29 1011.17 1011.12 1011.10 1011.08 1011.04 1010.96 1010.86 1010.76 1010.66 1010.61 1010.60 1010.64 1010.72 1010.85 1011.01 1011.21 1011.45 1011.74 1012.07 1012.45 1012.85 1013.26 1013.66 1014.03 1014.37 1014.68 1014.97 1015.25 1015.54 1015.84 1016.16 1016.48 1016.79 1017.08 1017.33 1017.55 1017.74 1017.92 1018.10
1012.46 1012.21 1012.01 1011.86 1011.76 1011.69 1011.60 1011.49 1011.35 1011.18 1011.00 1010.83 1010.70 1010.61 1010.58 1010.60 1010.66 1010.76 1010.89 1011.07 1011.31 1011.60 1011.96 1012.37 1012.81 1013.25 1013.69 1014.09 1014.45 1014.77 1015.06 1015.34 1015.63 1015.93 1016.25 1016.57 1016.89 1017.18 1017.44 1017.67 1017.88 1018.08 1018.28
1012.80 1012.67 1012.57 1012.49 1012.41 1012.29 1012.13 1011.92 1011.67 1011.40 1011.15 1010.93 1010.78 1010.68 1010.65 1010.65 1010.70 1010.77 1010.87 1011.02 1011.23 1011.51 1011.87 1012.28 1012.74 1013.21 1013.67 1014.08 1014.45 1014.77 1015.05 1015.32 1015.60 1015.89 1016.20 1016.52 1016.84 1017.15 1017.43 1017.69 1017.94 1018.17 1018.40
1013.11 1013.10 1013.11 1013.10 1013.03 1012.89 1012.66 1012.35 1012.01 1011.66 1011.35 1011.10 1010.94 1010.85 1010.81 1010.82 1010.84 1010.88 1010.95 1011.05 1011.21 1011.45 1011.78 1012.18 1012.64 1013.11 1013.57 1013.99 1014.35 1014.67 1014.94 1015.20 1015.46 1015.74 1016.04 1016.37 1016.70 1017.02 1017.34 1017.64 1017.93 1018.21 1018.49
1013.33 1013.45 1013.57 1013.62 1013.58 1013.42 1013.14 1012.77 1012.36 1011.96 1011.61 1011.35 1011.19 1011.11 1011.08 1011.08 1011.08 1011.08 1011.09 1011.13 1011.22 1011.41 1011.68 1012.05 1012.48 1012.95 1013.40 1013.82 1014.18 1014.49 1014.76 1015.00 1015.25 1015.52 1015.82 1016.15 1016.49 1016.85 1017.20 1017.54 1017.88 1018.22 1018.55
1013.43 1013.66 1013.88 1014.00 1014.00 1013.85 1013.55 1013.16 1012.72 1012.30 1011.94 1011.69 1011.53 1011.45 1011.42 1011.41 1011.37 1011.32 1011.26 1011.23 1011.25 1011.36 1011.58 1011.90 1012.30 1012.75 1013.20 1013.61 1013.98 1014.29 1014.56 1014.80 1015.05 1015.31 1015.61 1015.94 1016.30 1016.67 1017.06 1017.44 1017.83 1018.21 1018.59
1013.42 1013.74 1014.03 1014.22 1014.27 1014.16 1013.88 1013.50 1013.08 1012.66 1012.32 1012.08 1011.93 1011.85 1011.80 1011.76 1011.68 1011.56 1011.43 1011.33 1011.28 1011.32 1011.48 1011.76 1012.13 1012.56 1013.01 1013.43 1013.81 1014.13 1014.40 1014.66 1014.90 1015.16 1015.46 1015.79 1016.15 1016.54 1016.94 1017.36 1017.77 1018.19 1018.61
1013.30 1013.67 1014.02 1014.28 1014.39 1014.33 1014.12 1013.80 1013.42 1013.05 1012.73 1012.51 1012.35 1012.26 1012.18 1012.09 1011.96 1011.79 1011.59 1011.42 1011.32 1011.31 1011.43 1011.67 1012.02 1012.44 1012.88 1013.31 1013.70 1014.04 1014.34 1014.60 1014.85 1015.11 1015.40 1015.72 1016.07 1016.46 1016.86 1017.28 1017.71 1018.14 1018.57
1013.11 1013.48 1013.86 1014.17 1014.35 1014.38 1014.26 1014.03 1013.73 1013.43 1013.15 1012.94 1012.78 1012.65 1012.53 1012.38 1012.20 1011.98 1011.74 1011.53 1011.39 1011.35 1011.44 1011.66 1011.99 1012.41 1012.85 1013.29 1013.70 1014.05 1014.36 1014.63 1014.89 1015.14 1015.42 1015.72 1016.05 1016.41 1016.80 1017.21 1017.62 1018.05 1018.48
1012.86 1013.19 1013.57 1013.92 1014.18 1014.31 1014.31 1014.19 1014.00 1013.78 1013.55 1013.35 1013.17 1013.01 1012.84 1012.64 1012.41 1012.15 1011.89 1011.67 1011.51 1011.47 1011.55 1011.75 1012.07 1012.47 1012.91 1013.35 1013.76 1014.13 1014.45 1014.73 1014.98 1015.23 1015.47 1015.74 1016.04 1016.36 1016.71 1017.09 1017.48 1017.89 1018.30
1012.55 1012.82 1013.18 1013.55 1013.88 1014.13 1014.26 1014.29 1014.22 1014.09 1013.92 1013.73 1013.54 1013.33 1013.11 1012.87 1012.60 1012.33 1012.07 1011.85 1011.71 1011.66 1011.74 1011.93 1012.23 1012.60 1013.02 1013.45 1013.85 1014.22 1014.55 1014.83 1015.07 1015.29 1015.51 1015.74 1015.99 1016.26 1016.57 1016.90 1017.27 1017.65 1018.05
1012.19 1012.39 1012.71 1013.11 1013.51 1013.87 1014.15 1014.32 1014.38 1014.35 1014.25 1014.08 1013.87 1013.63 1013.37 1013.10 1012.81 1012.54 1012.29 1012.09 1011.97 1011.93 1012.00 1012.17 1012.42 1012.76 1013.13 1013.52 1013.91 1014.27 1014.58 1014.86 1015.09 1015.29 1015.48 1015.66 1015.86 1016.08 1016.34 1016.63 1016.97 1017.34 1017.72
1011.80 1011.92 1012.21 1012.63 1013.10 1013.57 1013.98 1014.30 1014.50 1014.57 1014.53 1014.39 1014.18 1013.93 1013.64 1013.34 1013.05 1012.79 1012.56 1012.39 1012.28 1012.24 1012.28 1012.41 1012.61 1012.88 1013.19 1013.53 1013.88 1014.22 1014.53 1014.79 1015.01 1015.19 1015.35 1015.49 1015.63 1015.81 1016.02 1016.28 1016.59 1016.95 1017.35
1011.42 1011.48 1011.74 1012.17 1012.70 1013.27 1013.80 1014.25 1014.57 1014.75 1014.78 1014.68 1014.48 1014.22 1013.92 1013.62 1013.34 1013.09 1012.89 1012.73 1012.62 1012.56 1012.56 1012.63 1012.75 1012.93 1013.17 1013.45 1013.75 1014.06 1014.36 1014.62 1014.84 1015.00 1015.12 1015.22 1015.32 1015.44 1015.61 1015.84 1016.14 1016.51 1016.92
1011.12 1011.13 1011.36 1011.79 1012.36 1013.00 1013.64 1014.20 1014.63 1014.90 1015.00 1014.95 1014.78 1014.52 1014.23 1013.94 1013.67 1013.44 1013.25 1013.09 1012.97 1012.88 1012.82 1012.79 1012.82 1012.91 1013.06 1013.28 1013.54 1013.83 1014.11 1014.37 1014.59 1014.74 1014.83 1014.89 1014.94 1015.01 1015.14 1015.34 1015.63 1016.00 1016.44
1010.96 1010.94 1011.15 1011.56 1012.14 1012.82 1013.52 1014.16 1014.68 1015.03 1015.20 1015.20 1015.06 1014.84 1014.57 1014.30 1014.04 1013.83 1013.64 1013.47 1013.32 1013.17 1013.03 1012.92 1012.85 1012.84 1012.91 1013.06 1013.28 1013.55 1013.83 1014.10 1014.31 1014.45 1014.52 1014.54 1014.53 1014.55 1014.62 1014.78 1015.05 1015.43 1015.89
1011.02 1010.97 1011.14 1011.52 1012.08 1012.76 1013.48 1014.16 1014.74 1015.15 1015.38 1015.43 1015.34 1015.16 1014.92 1014.67 1014.44 1014.23 1014.04 1013.85 1013.66 1013.45 1013.23 1013.03 1012.86 1012.76 1012.75 1012.85 1013.04 1013.29 1013.57 1013.84 1014.05 1014.18 1014.21 1014.18 1014.12 1014.06 1014.07 1014.18 1014.41 1014.78 1015.25
1011.31 1011.24 1011.36 1011.69 1012.19 1012.83 1013.53 1014.22 1014.82 1015.27 1015.55 1015.65 1015.62 1015.48 1015.28 1015.06 1014.85 1014.64 1014.44 1014.23 1013.99 1013.72 1013.43 1013.14 1012.89 1012.72 1012.65 1012.69 1012.85 1013.09 1013.37 1013.63 1013.83 1013.94 1013.94 1013.85 1013.71 1013.58 1013.50 1013.54 1013.71 1014.04 1014.51
1011.82 1011.72 1011.78 1012.02 1012.45 1013.02 1013.66 1014.32 1014.92 1015.39 1015.71 1015.86 1015.88 1015.79 1015.63 1015.44 1015.25 1015.05 1014.84 1014.61 1014.33 1014.01 1013.66 1013.31 1012.99 1012.75 1012.63 1012.63 1012.75 1012.97 1013.23 1013.48 1013.66 1013.73 1013.69 1013.53 1013.32 1013.10 1012.93 1012.88 1012.98 1013.25 1013.68
1012.48 1012.34 1012.33 1012.48 1012.80 1013.27 1013.84 1014.46 1015.03 1015.51 1015.86 1016.06 1016.12 1016.07 1015.96 1015.81 1015.63 1015.44 1015.23 1014.98 1014.68 1014.32 1013.93 1013.53 1013.16 1012.87 1012.69 1012.65 1012.73 1012.91 1013.13 1013.35 1013.50 1013.53 1013.43 1013.22 1012.93 1012.63 1012.37 1012.22 1012.23 1012.43 1012.80
Thickness
5725 5727 5728 5727 5727 5727 5726 5726 5726 5726 5726 5726 5726 5726 5725 5726 5726 5725 5725 5724 5724 5724 5723 5723 5723 5722 5722 5722 5721 5721 5720 5720 5719 5719 5719 5718 5718 5718 5717 5716 5716 5715 5714
5727 5726 5726 5725 5725 5724 5724 5724 5724 5724 5723 5723 5723 5723 5723 5722 5723 5722 5722 5722 5721 5721 5721 5720 5720 5719 5719 5718 5718 5717 5717 5716 5716 5715 5715 5715 5715 5714 5714 5713 5712 5711 5711
5725 5724 5724 5723 5722 5722 5721 5721 5721 5721 5721 5720 5720 5720 5720 5719 5719 5719 5719 5719 5718 5718 5717 5717 5716 5716 5716 5715 5715 5714 5714 5713 5712 5712 5711 5711 5711 5711 5710 5709 5709 5708 5708
5722 5721 5720 5720 5719 5719 5718 5718 5718 5718 5718 5717 5717 5717 5716 5716 5716 5716 5716 5715 5715 5715 5714 5713 5713 5713 5712 5712 5711 5711 5710 5709 5709 5708 5708 5708 5707 5707 5707 5706 5705 5704 5704
5718 5718 5717 5716 5715 5715 5715 5714 5714 5714 5714 5714 5714 5713 5713 5713 5713 5712 5712 5712 5711 5711 5711 5710 5710 5709 5709 5708 5708 5707 5707 5706 5705 5704 5704 5704 5704 5704 5703 5702 5701 5701 5700
5713 5713 5712 5712 5711 5711 5710 5711 5711 5711 5711 5710 5710 5710 5709 5709 5709 5708 5708 5708 5708 5707 5707 5706 5706 5705 5705 5705 5704 5704 5703 5702 5701 5700 5700 5700 5700 5700 5699 5698 5698 5697 5696
5708 5708 5708 5707 5707 5706 5706 5706 5706 5706 5706 5706 5706 5705 5705 5705 5705 5704 5704 5704 5703 5703 5703 5702 5702 5702 5701 5701 5701 5700 5699 5698 5698 5696 5696 5696 5696 5695 5695 5694 5694 5693 5692
5703 5702 5702 5702 5701 5701 5701 5701 5701 5701 5702 5702 5701 5701 5701 5700 5700 5700 5699 5699 5699 5699 5698 5698 5698 5698 5697 5697 5696 5696 5695 5694 5693 5693 5692 5692 5692 5691 5691 5690 5690 5689 5688
5697 5696 5696 5696 5696 5695 5695 5696 5696 5696 5696 5696 5696 5696 5696 5695 5695 5695 5695 5694 5694 5694 5694 5694 5694 5693 5693 5693 5692 5692 5692 5691 5690 5689 5688 5688 5688 5687 5687 5686 5685 5684 5684
5689 5690 5690 5690 5690 5690 5690 5690 5690 5690 5691 5691 5691 5691 5691 5690 5690 5690 5690 5689 5689 5689 5689 5689 5689 5689 5688 5688 5687 5687 5687 5686 5685 5685 5684 5684 5684 5684 5683 5682 5681 5680 5679
5680 5682 5683 5683 5683 5684 5684 5684 5684 5684 5684 5685 5685 5685 5685 5685 5684 5684 5684 5684 5684 5684 5684 5683 5683 5683 5683 5683 5682 5682 5682 5681 5681 5680 5680 5680 5680 5680 5679 5678 5676 5676 5675
5672 5674 5675 5676 5677 5677 5677 5677 5678 5678 5678 5678 5678 5678 5679 5679 5678 5678 5678 5678 5678 5678 5678 5678 5678 5677 5677 5677 5677 5676 5676 5676 5676 5676 5675 5675 5676 5675 5675 5674 5672 5671 5670
5666 5667 5668 5669 5670 5671 5671 5671 5671 5671 5671 5672 5672 5672 5672 5672 5672 5672 5672 5672 5672 5672 5672 5672 5672 5671 5671 5671 5671 5671 5671 5670 5670 5670 5670 5671 5671 5671 5670 5669 5668 5666 5665
5657 5659 5660 5662 5662 5663 5664 5664 5664 5664 5665 5665 5665 5665 5665 5665 5665 5665 5666 5666 5666 5666 5666 5666 5665 5665 5665 5665 5665 5665 5665 5665 5665 5665 5665 5665 5665 5665 5665 5664 5663 5661 5660
5649 5651 5652 5654 5655 5655 5656 5656 5657 5657 5658 5658 5659 5659 5658 5658 5658 5658 5659 5659 5659 5659 5659 5659 5658 5658 5659 5659 5659 5659 5659 5659 5659 5659 5659 5659 5659 5659 5659 5659 5657 5656 5655
5641 5643 5644 5646 5647 5648 5648 5649 5649 5650 5650 5650 5651 5651 5651 5651 5652 5651 5651 5652 5652 5652 5652 5652 5652 5652 5652 5652 5653 5653 5653 5653 5653 5653 5653 5653 5653 5653 5653 5653 5652 5651 5650
5632 5634 5636 5638 5639 5639 5640 5641 5642 5642 5642 5643 5643 5644 5644 5644 5644 5645 5644 5644 5645 5645 5645 5645 5645 5645 5645 5645 5646 5647 5647 5647 5647 5647 5647 5647 5647 5647 5647 5646 5646 5645 5644
5623 5625 5627 5628 5629 5631 5631 5632 5633 5634 5634 5635 5635 5635 5636 5636 5637 5637 5637 5637 5638 5638 5638 5638 5638 5637 5637 5637 5638 5639 5640 5640 5640 5641 5640 5640 5640 5640 5640 5640 5639 5639 5638
5613 5614 5616 5617 5619 5621 5622 5623 5624 5625 5626 5626 5626 5627 5627 5628 5628 5629 5629 5629 5630 5630 5630 5630 5629 5629 5628 5629 5630 5631 5632 5633 5634 5634 5634 5633 5633 5633 5632 5632 5632 5631 5631
5602 5604 5605 5607 5608 5610 5611 5613 5613 5615 5616 5616 5617 5617 5618 5618 5619 5619 5620 5620 5621 5621 5621 5621 5620 5621 5620 5620 5621 5622 5623 5624 5626 5627 5627 5627 5626 5626 5625 5624 5624 5623 5623
5590 5592 5594 5595 5597 5599 5599 5600 5602 5603 5605 5605 5606 5607 5607 5608 5609 5609 5610 5610 5611 5611 5611 5611 5611 5611 5610 5611 5610 5611 5613 5616 5616 5618 5619 5619 5619 5618 5618 5617 5616 5616 5615
5578 5580 5582 5584 5585 5587 5588 5589 5591 5592 5593 5594 5595 5596 5596 5597 5597 5598 5599 5600 5600 5601 5601 5601 5601 5600 5600 5601 5600 5599 5600 5604 5607 5609 5610 5610 5611 5610 5610 5609 5608 5608 5607
5565 5567 5570 5572 5574 5575 5577 5578 5580 5581 5582 5583 5583 5584 5585 5586 5586 5587 5588 5589 5590 5590 5591 5592 5592 5591 5590 5590 5591 5591 5590 5593 5595 5598 5600 5601 5601 5601 5601 5601 5600 5600 5599
5553 5555 5557 5559 5561 5563 5565 5566 5568 5569 5570 5571 5573 5574 5575 5575 5575 5576 5577 5579 5580 5581 5582 5582 5583 5582 5581 5580 5580 5581 5583 5584 5583 5586 5589 5591 5592 5592 5592 5592 5592 5592 5591
5541 5543 5545 5547 5549 5551 5553 5554 5556 5557 5558 5559 5561 5562 5564 5564 5565 5566 5567 5569 5570 5571 5572 5572 5572 5572 5572 5572 5571 5570 5571 5572 5574 5574 5577 5578 5580 5582 5583 5583 5583 5583 5582
5529 5530 5532 5534 5537 5539 5541 5543 5544 5545 5547 5548 5549 5551 5552 5553 5554 5556 5557 5558 5560 5560 5561 5561 5561 5562 5562 5562 5561 5562 5562 5562 5563 5564 5565 5566 5568 5572 5574 5574 5574 5575 5574